Regional Weather Roundup
Issued by NWS

Home | Current Version | Previous Version | Graphics & Text | Print | Product List | Glossary Off
Versions: 1 2 3 4 5 6 7 8 9 10 11 12 13 14 15 16 17 18 19 20 21 22 23 24 25 26 27 28 29 30 31 32 33 34 35 36 37 38 39 40 41 42 43 44 45 46 47 48 49 50

000
ASUS43 KTOP 271908
RWRKS

WEATHER ROUNDUP FOR KANSAS
NATIONAL WEATHER SERVICE GOODLAND KS
200 PM CDT THU APR 27 2017

NOTE:  "FAIR" INDICATES FEW OR NO CLOUDS BELOW 12,000 FEET WITH NO
SIGNIFICANT WEATHER AND/OR OBSTRUCTIONS TO VISIBILITY.

KSZ001>006-013>018-027>032-041>047-272000-
NORTHWEST KANSAS

CITY           SKY/WX    TMP DP  RH WIND       PRES   REMARKS
GOODLAND       MOSUNNY   60  38  43 SE23G30   29.49F
HILL CITY      CLOUDY    54  38  54 SE15G26   29.61F
RUSSELL        CLOUDY    55  40  56 SE15      29.65F
$$

KSZ061>065-074>080-084>089-272000-
SOUTHWEST KANSAS

CITY           SKY/WX    TMP DP  RH WIND       PRES   REMARKS
DODGE CITY     CLOUDY    61  36  39 SE23      29.56F
ELKHART          N/A     63  41  44 SW10        N/A
GARDEN CITY    CLOUDY    62  38  40 SE26G36   29.51F
GREAT BEND     LGT RAIN  54  41  61 E16       29.63F
LIBERAL        CLOUDY    66  41  40 S23G33    29.50F
PRATT          CLOUDY    56  36  45 SE16      29.62F
$$

KSZ066>073-081>083-090>101-272000-
SOUTHEAST KANSAS

CITY           SKY/WX    TMP DP  RH WIND       PRES   REMARKS
CHANUTE        SUNNY     60  43  53 SE8       29.74F
COFFEYVILLE    SUNNY     62  46  55 S10       29.76F
HUTCHINSON     PTSUNNY   61  42  49 SE17G25   29.68F
MEDICINE LODGE   N/A     59  37  44 S14G25    29.63F
NEWTON         CLOUDY    59  42  53 S14       29.71F
PARSONS        SUNNY     62  45  53 VRB6      29.76F
WICHITA INTL   CLOUDY    62  43  49 S17G23    29.68F
WICHITA JABRA  CLOUDY    60  41  49 SE15      29.69F
WICHITA MCCONL CLOUDY    61  41  47 S18       29.69F
WINFIELD       CLOUDY    63  42  46 SE12      29.70F
$$

KSZ007>012-019>026-033>040-048>060-102>105-272000-
NORTHEAST KANSAS

CITY           SKY/WX    TMP DP  RH WIND       PRES   REMARKS
CONCORDIA      CLOUDY    57  36  45 VRB3      29.70F
EMPORIA        CLOUDY    58  39  49 SE6       29.72F
LAWRENCE       SUNNY     59  37  44 VRB5      29.73F
MANHATTAN      MOSUNNY   59  35  40 SW6       29.72F
OLATHE IND     SUNNY     58  38  47 CALM      29.73F
OLATHE EXE     SUNNY     57  39  51 VRB5      29.73F
SALINA         PTSUNNY   60  39  45 SE10      29.70F
TOPEKA BILLARD SUNNY     61  37  41 SW6       29.71F
TOPEKA FORBES  MOSUNNY   61  36  39 SW6       29.71F
$$




USA.gov is the U.S. government's official web portal to all federal, state and local government web resources and services.